Kearney, NE

6:34 AM CDT on August 22, 2017 (GMT -0500)
Kearney Municipal

Weather History for KEAR - November, 2013

Change the Weather History Date:

Sunday, November 3, 2013

  Actual Average Record
Temperature  
Mean Temperature 51 °F 43 °F  
Max Temperature 63 °F 56 °F 83 °F (1909)
Min Temperature 39 °F 31 °F -2 °F (1991)
Degree Days  
Heating Degree Days 14 22  
Month to date heating degree days 64  
Cooling Degree Days 0 0  
Month to date cooling degree days 0  
Moisture  
Dew Point 32 °F    
Average Humidity 50    
Maximum Humidity 64    
Minimum Humidity 36    
Precipitation  
Precipitation 0.00 in - 1.16 in (1922)
Sea Level Pressure  
Sea Level Pressure 29.71 in    
Wind  
Wind Speed 22 mph (SSE)    
Max Wind Speed 32 mph    
Max Gust Speed 39 mph    
Visibility 10 miles    
Events      
T = Trace of Precipitation, MM = Missing Value Source: NWS Daily Summary

Daily Weather History Graph

Daily Weather History Graph

Search for Another Location

Airport or City:

Trip Planner

Search our weather history database for the weather conditions in past years. The results will help you decide how hot, cold, wet, or windy it might be!

Date:

Astronomy

Nov. 03, 2013 Rise Set
Actual Time 7:09 AM CST 5:29 PM CST
Civil Twilight 6:40 AM CST 5:58 PM CST
Nautical Twilight 6:08 AM CST 6:30 PM CST
Astronomical Twilight 5:36 AM CST 7:02 PM CST
Moon 7:14 AM CST (11/3) 5:45 PM CST (11/3)
Length of Visible Light 11h 17m
Length of Day
10h 20m
New Moon, 0% of the Moon is Illuminated
Nov 3
New Moon
Nov 9
First Quarter
Nov 17
Full
Nov 25
Last Quarter
Dec 2
New

Hourly Weather History & Observations

Time (CST) Temp. Windchill Dew Point Humidity Pressure Visibility Wind Dir Wind Speed Gust Speed Precip Events Conditions
12:15 AM 42.8 °F 35.4 °F 26.6 °F 53% 29.96 in 10.0 mi SSE 15.0 mph - N/A   Clear
12:35 AM 41.0 °F 33.1 °F 26.6 °F 57% 29.95 in 10.0 mi SSE 15.0 mph 20.7 mph N/A   Clear
12:55 AM 42.8 °F 34.8 °F 26.6 °F 53% 29.94 in 10.0 mi SSE 17.3 mph 23.0 mph N/A   Clear
1:15 AM 42.8 °F 35.4 °F 26.6 °F 53% 29.93 in 10.0 mi SSE 15.0 mph - N/A   Clear
1:35 AM 42.8 °F 34.5 °F 26.6 °F 53% 29.92 in 10.0 mi SSE 18.4 mph - N/A   Clear
1:55 AM 42.8 °F 34.0 °F 28.4 °F 57% 29.92 in 10.0 mi SSE 20.7 mph 25.3 mph N/A   Clear
1:15 AM 42.8 °F 33.5 °F 28.4 °F 57% 29.91 in 10.0 mi SSE 23.0 mph 28.8 mph N/A   Clear
1:35 AM 42.8 °F 34.3 °F 28.4 °F 57% 29.90 in 10.0 mi SSE 19.6 mph 25.3 mph N/A   Clear
1:55 AM 42.8 °F 34.3 °F 28.4 °F 57% 29.89 in 10.0 mi SSE 19.6 mph 26.5 mph N/A   Clear
2:15 AM 42.8 °F 34.0 °F 28.4 °F 57% 29.88 in 10.0 mi SSE 20.7 mph 27.6 mph N/A   Clear
2:35 AM 42.8 °F 33.5 °F 28.4 °F 57% 29.87 in 10.0 mi SSE 23.0 mph 26.5 mph N/A   Clear
2:55 AM 44.6 °F 35.9 °F 28.4 °F 53% 29.86 in 10.0 mi SSE 23.0 mph 26.5 mph N/A   Clear
3:15 AM 44.6 °F 34.9 °F 28.4 °F 53% 29.85 in 10.0 mi SSE 28.8 mph 34.5 mph N/A   Clear
3:35 AM 42.8 °F 33.1 °F 28.4 °F 57% 29.85 in 10.0 mi SSE 25.3 mph 33.4 mph N/A   Clear
3:55 AM 42.8 °F 33.1 °F 28.4 °F 57% 29.84 in 10.0 mi South 25.3 mph 29.9 mph N/A   Clear
4:15 AM 42.8 °F 33.3 °F 28.4 °F 57% 29.83 in 10.0 mi SSE 24.2 mph 29.9 mph N/A   Clear
4:35 AM 42.8 °F 34.5 °F 28.4 °F 57% 29.82 in 10.0 mi SSE 18.4 mph 24.2 mph N/A   Clear
4:55 AM 41.0 °F 31.9 °F 28.4 °F 61% 29.82 in 10.0 mi SSE 19.6 mph 24.2 mph N/A   Clear
5:15 AM 41.0 °F 32.5 °F 28.4 °F 61% 29.81 in 10.0 mi SSE 17.3 mph - N/A   Clear
5:35 AM 41.0 °F 32.2 °F 28.4 °F 61% 29.81 in 10.0 mi SSE 18.4 mph 23.0 mph N/A   Clear
5:55 AM 39.2 °F 30.8 °F 28.4 °F 65% 29.80 in 10.0 mi SSE 15.0 mph - N/A   Clear
6:15 AM 39.2 °F 30.5 °F 28.4 °F 65% 29.79 in 10.0 mi SSE 16.1 mph - N/A   Clear
6:35 AM 39.2 °F 30.5 °F 28.4 °F 65% 29.79 in 10.0 mi SSE 16.1 mph - N/A   Clear
6:55 AM 39.2 °F 30.5 °F 28.4 °F 65% 29.78 in 10.0 mi SSE 16.1 mph - N/A   Clear
7:15 AM 41.0 °F 32.2 °F 28.4 °F 61% 29.76 in 10.0 mi SSE 18.4 mph 23.0 mph N/A   Clear
7:35 AM 41.0 °F 31.6 °F 28.4 °F 61% 29.75 in 10.0 mi SSE 20.7 mph 25.3 mph N/A   Clear
7:55 AM 42.8 °F 34.3 °F 30.2 °F 61% 29.75 in 10.0 mi SSE 19.6 mph 26.5 mph N/A   Clear
8:15 AM 42.8 °F 34.0 °F 30.2 °F 61% 29.75 in 10.0 mi SSE 20.7 mph 26.5 mph N/A   Clear
8:35 AM 44.6 °F 36.4 °F 30.2 °F 57% 29.74 in 10.0 mi SSE 20.7 mph 27.6 mph N/A   Clear
8:55 AM 44.6 °F 35.7 °F 30.2 °F 57% 29.74 in 10.0 mi SSE 24.2 mph 31.1 mph N/A   Clear
9:15 AM 46.4 °F 37.7 °F 30.2 °F 53% 29.72 in 10.0 mi SSE 26.5 mph 32.2 mph N/A   Clear
9:35 AM 48.2 °F - 30.2 °F 50% 29.72 in 10.0 mi South 24.2 mph 34.5 mph N/A   Clear
9:55 AM 48.2 °F - 30.2 °F 50% 29.70 in 10.0 mi South 26.5 mph 33.4 mph N/A   Clear
10:15 AM 50.0 °F - 32.0 °F 50% 29.70 in 10.0 mi South 25.3 mph 31.1 mph N/A   Clear
10:35 AM 51.8 °F - 32.0 °F 47% 29.68 in 10.0 mi South 35.7 mph 40.3 mph N/A   Clear
10:55 AM 51.8 °F - 30.2 °F 44% 29.67 in 10.0 mi South 32.2 mph 39.1 mph N/A   Clear
11:15 AM 51.8 °F - 32.0 °F 47% 29.66 in 10.0 mi South 27.6 mph 40.3 mph N/A   Clear
11:35 AM 53.6 °F - 32.0 °F 44% 29.65 in 10.0 mi South 25.3 mph 38.0 mph N/A   Clear
11:55 AM 53.6 °F - 32.0 °F 44% 29.63 in 10.0 mi South 26.5 mph 36.8 mph N/A   Clear
12:15 PM 55.4 °F - 32.0 °F 41% 29.63 in 10.0 mi South 29.9 mph 35.7 mph N/A   Clear
12:35 PM 55.4 °F - 33.8 °F 44% 29.62 in 10.0 mi South 27.6 mph 35.7 mph N/A   Clear
12:55 PM 57.2 °F - 33.8 °F 41% 29.60 in 10.0 mi South 23.0 mph 35.7 mph N/A   Clear
1:15 PM 57.2 °F - 33.8 °F 41% 29.60 in 10.0 mi South 29.9 mph 39.1 mph N/A   Clear
1:35 PM 59.0 °F - 33.8 °F 39% 29.60 in 10.0 mi South 24.2 mph 39.1 mph N/A   Clear
1:55 PM 59.0 °F - 33.8 °F 39% 29.59 in 10.0 mi South 32.2 mph 38.0 mph N/A   Clear
2:15 PM 57.2 °F - 33.8 °F 41% 29.60 in 10.0 mi South 25.3 mph 34.5 mph N/A   Clear
2:35 PM 59.0 °F - 33.8 °F 39% 29.60 in 10.0 mi South 23.0 mph 29.9 mph N/A   Clear
2:55 PM 60.8 °F - 33.8 °F 36% 29.59 in 10.0 mi South 29.9 mph 36.8 mph N/A   Clear
3:15 PM 60.8 °F - 33.8 °F 36% 29.58 in 10.0 mi South 18.4 mph 34.5 mph N/A   Clear
3:35 PM 60.8 °F - 33.8 °F 36% 29.58 in 10.0 mi South 23.0 mph 29.9 mph N/A   Clear
3:55 PM 60.8 °F - 33.8 °F 36% 29.58 in 10.0 mi SSE 23.0 mph 33.4 mph N/A   Clear
4:15 PM 60.8 °F - 35.6 °F 39% 29.56 in 10.0 mi SE 17.3 mph 31.1 mph N/A   Clear
4:35 PM 60.8 °F - 35.6 °F 39% 29.56 in 10.0 mi SSE 20.7 mph - N/A   Clear
4:55 PM 60.8 °F - 35.6 °F 39% 29.56 in 10.0 mi SE 13.8 mph - N/A   Clear
5:15 PM 59.0 °F - 35.6 °F 42% 29.57 in 10.0 mi SE 11.5 mph - N/A   Clear
5:35 PM 57.2 °F - 35.6 °F 44% 29.56 in 10.0 mi SE 12.7 mph - N/A   Clear
5:55 PM 59.0 °F - 33.8 °F 39% 29.57 in 10.0 mi SSE 18.4 mph 24.2 mph N/A   Clear
6:15 PM 60.8 °F - 33.8 °F 36% 29.58 in 10.0 mi SSE 23.0 mph 28.8 mph N/A   Clear
6:35 PM 59.0 °F - 33.8 °F 39% 29.58 in 10.0 mi SSE 21.9 mph 29.9 mph N/A   Clear
6:55 PM 57.2 °F - 33.8 °F 41% 29.59 in 10.0 mi South 20.7 mph 31.1 mph N/A   Clear
7:15 PM 55.4 °F - 33.8 °F 44% 29.59 in 10.0 mi SSE 18.4 mph 26.5 mph N/A   Clear
7:35 PM 55.4 °F - 33.8 °F 44% 29.60 in 10.0 mi SSE 21.9 mph 28.8 mph N/A   Clear
7:55 PM 53.6 °F - 33.8 °F 47% 29.61 in 10.0 mi SSE 24.2 mph 29.9 mph N/A   Clear
8:15 PM 53.6 °F - 33.8 °F 47% 29.62 in 10.0 mi SSE 19.6 mph - N/A   Clear
8:35 PM 53.6 °F - 35.6 °F 51% 29.63 in 10.0 mi South 16.1 mph - N/A   Clear
8:55 PM 51.8 °F - 35.6 °F 54% 29.63 in 10.0 mi SSE 15.0 mph - N/A   Clear
9:15 PM 51.8 °F - 35.6 °F 54% 29.63 in 10.0 mi SSE 19.6 mph - N/A   Clear
9:35 PM 51.8 °F - 35.6 °F 54% 29.63 in 10.0 mi SSE 21.9 mph 25.3 mph N/A   Clear
9:55 PM 51.8 °F - 35.6 °F 54% 29.63 in 10.0 mi SSE 18.4 mph 24.2 mph N/A   Clear
10:15 PM 51.8 °F - 35.6 °F 54% 29.64 in 10.0 mi SSE 17.3 mph 24.2 mph N/A   Clear
10:35 PM 50.0 °F - 35.6 °F 58% 29.63 in 10.0 mi SSE 17.3 mph 23.0 mph N/A   Clear
10:55 PM 48.2 °F - 35.6 °F 62% 29.64 in 10.0 mi SSE 18.4 mph - N/A   Clear